Location: Esp�n
(42.4593°N, 0.2047°W)
Time: 19:24:11
(UTC+00:00)

Cosmos 2322 Rocket - Visible Passes

Search period start: 26 September 2020 00:00
Search period end: 06 October 2020 00:00
Orbit: 831 x 852 km, 71.0° (Epoch: 25 September)

Date Brightness Start Highest point End Pass type
(mag) Time Alt. Az. Time Alt. Az. Time Alt. Az.
26 Sep 3.3 02:40:13 39° E 02:40:13 39° E 02:44:53 10° NE visible
26 Sep 3.0 04:22:04 27° W 04:23:42 32° NW 04:28:48 10° N visible
27 Sep 3.7 02:26:01 33° ENE 02:26:01 33° ENE 02:29:48 10° NE visible
27 Sep 2.9 04:07:52 32° WNW 04:08:38 33° NW 04:13:47 10° N visible
28 Sep 4.0 02:11:45 27° ENE 02:11:45 27° ENE 02:14:43 10° NE visible
28 Sep 2.9 03:53:35 35° NW 03:53:35 35° NW 03:58:47 10° N visible
29 Sep 4.4 01:57:26 21° NE 01:57:26 21° NE 01:59:38 10° NE visible
29 Sep 3.0 03:39:16 35° NW 03:39:16 35° NW 03:43:47 10° N visible
30 Sep 4.7 01:43:04 17° NE 01:43:04 17° NE 01:44:32 10° NE visible
30 Sep 3.3 03:24:55 33° NNW 03:24:55 33° NNW 03:28:46 10° N visible
01 Oct 4.9 01:28:40 13° NE 01:28:40 13° NE 01:29:26 10° NE visible
01 Oct 3.5 03:10:30 29° NNW 03:10:30 29° NNW 03:13:45 10° NNE visible
02 Oct 5.1 01:14:13 10° NE 01:14:13 10° NE 01:14:20 10° NE visible
02 Oct 3.8 02:56:02 26° N 02:56:02 26° N 02:58:44 10° NNE visible
03 Oct 4.1 02:41:33 22° N 02:41:33 22° N 02:43:43 10° NNE visible
04 Oct 4.4 02:27:03 19° N 02:27:03 19° N 02:28:42 10° NNE visible
05 Oct 4.6 02:12:31 16° N 02:12:31 16° N 02:13:40 10° NNE visible
